Starlink 11665

operational
NORAD ID: 63549 Int'l Des: 2025-075 Owner: SPXS Country: US Constellation: starlink
LEOCIRCULAR

About Starlink 11665

Description loading...

Live Position

Loading 3D Globe...

Upcoming Passes

Altitude History

Altitude vs Time

uPlot chart will show altitude changes over time

Two-Line Element Set

1 63549U 25075B 25350.55066414 .00197460 00000-0 15034-2 0 9994
2 63549 42.9974 294.8820 0000681 53.6568 306.4362 15.70882663 40177
Epoch: Dec 16, 2025 • Age: 18 hours

Current Status

Altitude 355.2 km
Velocity 7.70 km/s
Sub-Earth Point 2.86°N, 79.9°W
Launch Date Apr 13, 2025
Age 0.6 years
Type internet

Technical Details

Classification Payload
Mass 960.00 kg
Dry Mass 910.00 kg
Total Mass 960.00 kg
Length 0.30 m
Diameter 4.10 m
Span 29.00 m
Shape Box + pan
Manufacturer SPXS
Bus Type Starlink V2MD
Phase Status In Orbit
Owner/State SPXS/US

Large Constellations

Loading constellations...